Notices

What's New in latest Release from April 7th, 2021:

- Updated Glossary, including Speed of Maximum Gust, and Total Hourly Precipitation

- Updated national and regional climate services offices contacts and prices information

- Addition of station inventory lists for 1981-2010, 1971-2000, and 1961-1990 Normals.

If you haven't already, please take our survey and provide feedback about our website: https://eccc.sondage-survey.ca/f/LanguageSelection.aspx?s=442ca660-fcf1-47c0-95a9-59707d6fd709

Hourly Data Report for October 19, 2020

MUSKOKA
ONTARIO
Current Station Operator: NAVCAN

44°58'29.000" N
79°18'12.000" W
281.90 m
6115529
71532
YQA

Download Data

Hourly Data (October 2020)
Hourly Data Report for October 19, 2020
TIME
LST
Temp Definition
°C
Dew Point Definition
°C
Rel Hum Definition
%
Precip. Amount Definition
mm

Wind Dir Definition
10's deg

Wind Spd Definition
km/h
Visibility Definition
km
Stn Press Definition
kPa
Hmdx Definition


Wind Chill Definition


Weather Definition


00:00 3.8 3.2 96 0.0 LegendMM 4 16.1 98.82     Rain
01:00 3.3 2.9 97 0.0   0 16.1 98.85     LegendNANA
02:00 2.2 2.1 99 0.0   0 14.5 98.85     LegendNANA
03:00 1.2 1.1 99 0.0 32 5 8.1 98.91     Fog
04:00 0.8 0.7 99 0.0 17 4 2.0 98.95     Fog
05:00 1.2 1.1 99 0.0 LegendMM 4 16.1 99.01     LegendNANA
06:00 1.3 1.2 99 0.0   0 16.1 99.04     LegendNANA
07:00 1.8 1.7 99 0.0 12 5 16.1 99.06     LegendNANA
08:00 2.5 2.4 99 0.0 LegendMM 4 16.1 99.09     LegendNANA
09:00 3.3 3.0 98 0.0 10 5 16.1 99.13     LegendNANA
10:00 5.0 3.6 91 0.0 9 5 16.1 99.16     LegendNANA
11:00 5.8 3.4 84 0.0 13 8 16.1 99.15     LegendNANA
12:00 7.4 2.8 72 0.0 LegendMM 5 16.1 99.04     LegendNANA
13:00 7.9 2.4 68 0.0 LegendMM 5 16.1 99.02     LegendNANA
14:00 9.2 2.7 64 0.0 LegendMM 4 16.1 98.99     LegendNANA
15:00 9.3 1.4 58 0.0 17 13 16.1 98.96     LegendNANA
16:00 8.6 1.8 62 0.0 14 13 16.1 98.89     LegendNANA
17:00 7.3 2.4 71 0.0 13 11 16.1 98.87     LegendNANA
18:00 5.4 2.4 81 0.0 11 5 16.1 98.86     LegendNANA
19:00 5.2 2.5 83 0.0 10 5 16.1 98.90     LegendNANA
20:00 5.4 1.6 77 0.0 11 8 16.1 98.89     LegendNANA
21:00 4.5 2.6 87 0.2 10 5 16.1 98.92     Rain
22:00 3.3 2.1 92 1.2 8 5 16.1 98.88     Rain
23:00 2.8 1.9 94 1.2 8 8 16.1 98.78     Rain

Notes on Data Quality.

Legend

  • E = Estimated
  • M = Missing
  • NA = Not Available*
  • [empty] = Indicates an unobserved value
Date modified: